Year,Month,Day,Hour,Minute,Value (Times are PST for temperature in C)
2020,05,04,07,07,7.10
2020,05,04,07,08,7.10
2020,05,04,07,09,7.20
2020,05,04,07,10,7.30
2020,05,04,07,11,7.30
2020,05,04,07,12,7.30
2020,05,04,07,13,7.30
2020,05,04,07,14,7.40
2020,05,04,07,15,7.40
2020,05,04,07,16,7.50
2020,05,04,07,17,7.60
2020,05,04,07,18,7.60
2020,05,04,07,19,7.60
2020,05,04,07,20,7.70
2020,05,04,07,21,7.70
2020,05,04,07,22,7.80
2020,05,04,07,23,7.80
2020,05,04,07,24,7.80
2020,05,04,07,25,7.90
2020,05,04,07,26,7.90
2020,05,04,07,27,7.90
2020,05,04,07,28,7.90
2020,05,04,07,29,7.90
2020,05,04,07,30,7.90
2020,05,04,07,31,7.90
2020,05,04,07,32,8.00
2020,05,04,07,33,7.90
2020,05,04,07,34,7.90
2020,05,04,07,35,8.00
2020,05,04,07,36,8.00
2020,05,04,07,37,8.00
2020,05,04,07,38,8.00
2020,05,04,07,39,8.10
2020,05,04,07,40,8.10
2020,05,04,07,41,8.10
2020,05,04,07,42,8.10
2020,05,04,07,43,8.10
2020,05,04,07,44,8.10
2020,05,04,07,45,8.10
2020,05,04,07,46,8.10
2020,05,04,07,47,8.10
2020,05,04,07,48,8.10
2020,05,04,07,49,8.10
2020,05,04,07,50,8.10
2020,05,04,07,51,8.20
2020,05,04,07,52,8.20
2020,05,04,07,53,8.20
2020,05,04,07,54,8.20
2020,05,04,07,55,8.20
2020,05,04,07,56,8.20
2020,05,04,07,57,8.20
2020,05,04,07,58,8.20
2020,05,04,07,59,8.20
2020,05,04,08,00,8.20
2020,05,04,08,01,8.20
2020,05,04,08,02,8.20
2020,05,04,08,03,8.20
2020,05,04,08,04,8.20
2020,05,04,08,05,8.20
2020,05,04,08,06,8.20
2020,05,04,08,07,8.20
2020,05,04,08,08,8.20
2020,05,04,08,09,8.20
2020,05,04,08,10,8.20
2020,05,04,08,11,8.20
2020,05,04,08,12,8.30
2020,05,04,08,13,8.30
2020,05,04,08,14,8.30
2020,05,04,08,15,8.30
2020,05,04,08,16,8.40
2020,05,04,08,17,8.40
2020,05,04,08,18,8.40
2020,05,04,08,19,8.40
2020,05,04,08,20,8.40
2020,05,04,08,21,8.40
2020,05,04,08,22,8.40
2020,05,04,08,23,8.40
2020,05,04,08,24,8.50
2020,05,04,08,25,8.50
2020,05,04,08,26,8.50
2020,05,04,08,27,8.60
2020,05,04,08,28,8.60
2020,05,04,08,29,8.70
2020,05,04,08,30,8.70
2020,05,04,08,31,8.80
2020,05,04,08,32,8.80
2020,05,04,08,33,8.90
2020,05,04,08,34,8.90
2020,05,04,08,35,9.00
2020,05,04,08,36,9.00
2020,05,04,08,37,9.10
2020,05,04,08,38,9.10
2020,05,04,08,39,9.20
2020,05,04,08,40,9.20
2020,05,04,08,41,9.20
2020,05,04,08,42,9.20
2020,05,04,08,43,9.20
2020,05,04,08,44,9.20
2020,05,04,08,45,9.10
2020,05,04,08,46,9.10
2020,05,04,08,47,9.10
2020,05,04,08,48,9.10
2020,05,04,08,49,9.10
2020,05,04,08,50,9.10
2020,05,04,08,51,9.10
2020,05,04,08,52,9.10
2020,05,04,08,53,9.10
2020,05,04,08,54,9.10
2020,05,04,08,55,9.20
2020,05,04,08,56,9.20
2020,05,04,08,57,9.20
2020,05,04,08,58,9.20
2020,05,04,08,59,9.20
2020,05,04,09,00,9.20
2020,05,04,09,01,9.20
2020,05,04,09,02,9.20
2020,05,04,09,03,9.20
2020,05,04,09,04,9.20
2020,05,04,09,05,9.30
2020,05,04,09,06,9.30
2020,05,04,09,07,9.30
2020,05,04,09,08,9.30
2020,05,04,09,09,9.30
2020,05,04,09,10,9.30
2020,05,04,09,11,9.30
2020,05,04,09,12,9.30
2020,05,04,09,13,9.30
2020,05,04,09,14,9.30
2020,05,04,09,15,9.30
2020,05,04,09,16,9.30
2020,05,04,09,17,9.30
2020,05,04,09,18,9.40
2020,05,04,09,19,9.40
2020,05,04,09,20,9.40
2020,05,04,09,21,9.40
2020,05,04,09,22,9.50
2020,05,04,09,23,9.40
2020,05,04,09,24,9.40
2020,05,04,09,25,9.40
2020,05,04,09,26,9.50
2020,05,04,09,27,9.40
2020,05,04,09,28,9.40
2020,05,04,09,29,9.40
2020,05,04,09,30,9.40
2020,05,04,09,31,9.50
2020,05,04,09,32,9.50
2020,05,04,09,33,9.60
2020,05,04,09,34,9.70
2020,05,04,09,35,9.70
2020,05,04,09,36,9.70
2020,05,04,09,37,9.80
2020,05,04,09,38,9.80
2020,05,04,09,39,9.80
2020,05,04,09,40,9.70
2020,05,04,09,41,9.70
2020,05,04,09,42,9.70
2020,05,04,09,43,9.60
2020,05,04,09,44,9.60
2020,05,04,09,45,9.60
2020,05,04,09,46,9.60
2020,05,04,09,47,9.60
2020,05,04,09,48,9.70
2020,05,04,09,49,9.70
2020,05,04,09,50,9.70
2020,05,04,09,51,9.80
2020,05,04,09,52,9.80
2020,05,04,09,53,9.80
2020,05,04,09,54,9.80
2020,05,04,09,55,9.90
2020,05,04,09,56,9.90
2020,05,04,09,57,9.90
2020,05,04,09,58,9.90
2020,05,04,09,59,9.90
2020,05,04,10,00,9.90
2020,05,04,10,01,9.90
2020,05,04,10,02,9.90
2020,05,04,10,03,9.80
2020,05,04,10,04,9.80
2020,05,04,10,05,9.80
2020,05,04,10,06,9.80
2020,05,04,10,07,9.80
2020,05,04,10,08,9.80
2020,05,04,10,09,9.80
2020,05,04,10,10,9.80
2020,05,04,10,11,9.80
2020,05,04,10,12,9.90
2020,05,04,10,13,9.90
2020,05,04,10,14,9.90
2020,05,04,10,15,9.90
2020,05,04,10,16,9.90
2020,05,04,10,17,9.90
2020,05,04,10,18,9.90
2020,05,04,10,19,9.90
2020,05,04,10,20,9.90
2020,05,04,10,21,9.80
2020,05,04,10,22,9.80
2020,05,04,10,23,9.70
2020,05,04,10,24,9.70
2020,05,04,10,25,9.70
2020,05,04,10,26,9.70
2020,05,04,10,27,9.60
2020,05,04,10,28,9.60
2020,05,04,10,29,9.60
2020,05,04,10,30,9.60
2020,05,04,10,31,9.60
2020,05,04,10,32,9.60
2020,05,04,10,33,9.60
2020,05,04,10,34,9.70
2020,05,04,10,35,9.60
2020,05,04,10,36,9.60
2020,05,04,10,37,9.70
2020,05,04,10,38,9.70
2020,05,04,10,39,9.70
2020,05,04,10,40,9.70
2020,05,04,10,41,9.70
2020,05,04,10,42,9.70
2020,05,04,10,43,9.70
2020,05,04,10,44,9.80
2020,05,04,10,45,9.80
2020,05,04,10,46,9.90
2020,05,04,10,47,9.90
2020,05,04,10,48,9.90
2020,05,04,10,49,9.90
2020,05,04,10,50,9.90
2020,05,04,10,51,9.90
2020,05,04,10,52,9.90
2020,05,04,10,53,9.90
2020,05,04,10,54,9.90
2020,05,04,10,55,9.90
2020,05,04,10,56,9.90
2020,05,04,10,57,9.90
2020,05,04,10,58,9.90
2020,05,04,10,59,10.00
2020,05,04,11,00,10.10
2020,05,04,11,01,10.10
2020,05,04,11,02,10.10
2020,05,04,11,03,10.10
2020,05,04,11,04,10.20
2020,05,04,11,05,10.20
2020,05,04,11,06,10.20
2020,05,04,11,07,10.10
2020,05,04,11,08,10.20
2020,05,04,11,09,10.20
2020,05,04,11,10,10.20
2020,05,04,11,11,10.20
2020,05,04,11,12,10.20
2020,05,04,11,13,10.20
2020,05,04,11,14,10.30
2020,05,04,11,15,10.30
2020,05,04,11,16,10.20
2020,05,04,11,17,10.20
2020,05,04,11,18,10.30
2020,05,04,11,19,10.30
2020,05,04,11,20,10.30
2020,05,04,11,21,10.30
2020,05,04,11,22,10.20
2020,05,04,11,23,10.20
2020,05,04,11,24,10.20
2020,05,04,11,25,10.20
2020,05,04,11,26,10.20
2020,05,04,11,27,10.20
2020,05,04,11,28,10.20
2020,05,04,11,29,10.20
2020,05,04,11,30,10.20
2020,05,04,11,31,10.20
2020,05,04,11,32,10.20
2020,05,04,11,33,10.30
2020,05,04,11,34,10.30
2020,05,04,11,35,10.40
2020,05,04,11,36,10.40
2020,05,04,11,37,10.40
2020,05,04,11,38,10.30
2020,05,04,11,39,10.30
2020,05,04,11,40,10.30
2020,05,04,11,41,10.40
2020,05,04,11,42,10.40
2020,05,04,11,43,10.40
2020,05,04,11,44,10.40
2020,05,04,11,45,10.40
2020,05,04,11,46,10.60
2020,05,04,11,47,10.60
2020,05,04,11,48,10.60
2020,05,04,11,49,10.60
2020,05,04,11,50,10.60
2020,05,04,11,51,10.60
2020,05,04,11,52,10.60
2020,05,04,11,53,10.60
2020,05,04,11,54,10.60
2020,05,04,11,55,10.60
2020,05,04,11,56,10.60
2020,05,04,11,57,10.60
2020,05,04,11,58,10.60
2020,05,04,11,59,10.60
2020,05,04,12,00,10.60
2020,05,04,12,01,10.60
2020,05,04,12,02,10.60
2020,05,04,12,03,10.70
2020,05,04,12,04,10.70
2020,05,04,12,05,10.70
2020,05,04,12,06,10.70
2020,05,04,12,07,10.70
2020,05,04,12,08,10.70
2020,05,04,12,09,10.70
2020,05,04,12,10,10.70
2020,05,04,12,11,10.70
2020,05,04,12,12,10.70
2020,05,04,12,13,10.60
2020,05,04,12,14,10.60
2020,05,04,12,15,10.60
2020,05,04,12,16,10.60
2020,05,04,12,17,10.60
2020,05,04,12,18,10.60
2020,05,04,12,19,10.60
2020,05,04,12,20,10.60
2020,05,04,12,21,10.60
2020,05,04,12,22,10.60
2020,05,04,12,23,10.60
2020,05,04,12,24,10.60
2020,05,04,12,25,10.60
2020,05,04,12,26,10.60
2020,05,04,12,27,10.60
2020,05,04,12,28,10.60
2020,05,04,12,29,10.60
2020,05,04,12,30,10.60
2020,05,04,12,31,10.60
2020,05,04,12,32,10.70
2020,05,04,12,33,10.70
2020,05,04,12,34,10.80
2020,05,04,12,35,10.90
2020,05,04,12,36,10.90
2020,05,04,12,37,10.90
2020,05,04,12,38,10.90
2020,05,04,12,39,10.90
2020,05,04,12,40,10.90
2020,05,04,12,41,10.90
2020,05,04,12,42,10.90
2020,05,04,12,43,10.90
2020,05,04,12,44,10.90
2020,05,04,12,45,10.90
2020,05,04,12,46,10.90
2020,05,04,12,47,10.90
2020,05,04,12,48,10.90
2020,05,04,12,49,10.90
2020,05,04,12,50,11.10
2020,05,04,12,51,11.10
2020,05,04,12,52,11.10
2020,05,04,12,53,11.10
2020,05,04,12,54,11.10
2020,05,04,12,55,11.10
2020,05,04,12,56,11.10
2020,05,04,12,57,11.10
2020,05,04,12,58,11.10
2020,05,04,12,59,11.10
2020,05,04,13,00,11.10
2020,05,04,13,01,11.10
2020,05,04,13,02,11.10
2020,05,04,13,03,11.10
2020,05,04,13,04,11.10
2020,05,04,13,05,11.10
2020,05,04,13,06,11.20
2020,05,04,13,07,11.10
2020,05,04,13,08,11.10
2020,05,04,13,09,11.20
2020,05,04,13,10,11.20
2020,05,04,13,11,11.30
2020,05,04,13,12,11.30
2020,05,04,13,13,11.30
2020,05,04,13,14,11.30
2020,05,04,13,15,11.30
2020,05,04,13,16,11.30
2020,05,04,13,17,11.30
2020,05,04,13,18,11.30
2020,05,04,13,19,11.30
2020,05,04,13,20,11.30
2020,05,04,13,21,11.30
2020,05,04,13,22,11.40
2020,05,04,13,23,11.40
2020,05,04,13,24,11.40
2020,05,04,13,25,11.40
2020,05,04,13,26,11.40
2020,05,04,13,27,11.40
2020,05,04,13,28,11.40
2020,05,04,13,29,11.40
2020,05,04,13,30,11.40
2020,05,04,13,31,11.40
2020,05,04,13,32,11.50
2020,05,04,13,33,11.60
2020,05,04,13,34,11.60
2020,05,04,13,35,11.60
2020,05,04,13,36,11.60
2020,05,04,13,37,11.60
2020,05,04,13,38,11.60
2020,05,04,13,39,11.60
2020,05,04,13,40,11.60
2020,05,04,13,41,11.60
2020,05,04,13,42,11.60
2020,05,04,13,43,11.60
2020,05,04,13,44,11.60
2020,05,04,13,45,11.60
2020,05,04,13,46,11.60
2020,05,04,13,47,11.70
2020,05,04,13,48,11.70
2020,05,04,13,49,11.70
2020,05,04,13,50,11.70
2020,05,04,13,51,11.70
2020,05,04,13,52,11.70
2020,05,04,13,53,11.80
2020,05,04,13,54,11.80
2020,05,04,13,55,11.80
2020,05,04,13,56,11.80
2020,05,04,13,57,11.80
2020,05,04,13,58,11.80
2020,05,04,13,59,11.80
2020,05,04,14,00,11.80
2020,05,04,14,01,11.90
2020,05,04,14,02,11.90
2020,05,04,14,03,11.90
2020,05,04,14,04,11.90
2020,05,04,14,05,11.90
2020,05,04,14,06,11.90
2020,05,04,14,07,11.90
2020,05,04,14,08,11.90
2020,05,04,14,09,11.90
2020,05,04,14,10,11.90
2020,05,04,14,11,11.90
2020,05,04,14,12,11.90
2020,05,04,14,13,12.00
2020,05,04,14,14,12.00
2020,05,04,14,15,12.00
2020,05,04,14,16,12.00
2020,05,04,14,17,12.00
2020,05,04,14,18,12.10
2020,05,04,14,19,12.10
2020,05,04,14,20,12.10
2020,05,04,14,21,12.10
2020,05,04,14,22,12.10
2020,05,04,14,23,12.10
2020,05,04,14,24,12.10
2020,05,04,14,25,12.20
2020,05,04,14,26,12.20
2020,05,04,14,27,12.20
2020,05,04,14,28,12.20
2020,05,04,14,29,12.30
2020,05,04,14,30,12.30
2020,05,04,14,31,12.30
2020,05,04,14,32,12.30
2020,05,04,14,33,12.40
2020,05,04,14,34,12.40
2020,05,04,14,35,12.40
2020,05,04,14,36,12.50
2020,05,04,14,37,12.50
2020,05,04,14,38,12.50
2020,05,04,14,39,12.50
2020,05,04,14,40,12.50
2020,05,04,14,41,12.50
2020,05,04,14,42,12.50
2020,05,04,14,43,12.60
2020,05,04,14,44,12.60
2020,05,04,14,45,12.60
2020,05,04,14,46,12.70
2020,05,04,14,47,12.70
2020,05,04,14,48,12.80
2020,05,04,14,49,12.80
2020,05,04,14,50,12.90
2020,05,04,14,51,13.00
2020,05,04,14,52,13.00
2020,05,04,14,53,13.00
2020,05,04,14,54,13.10
2020,05,04,14,55,13.00
2020,05,04,14,56,13.00
2020,05,04,14,57,13.10
2020,05,04,14,58,13.10
2020,05,04,14,59,13.10
2020,05,04,15,00,13.10
2020,05,04,15,01,13.10
2020,05,04,15,02,13.10
2020,05,04,15,03,13.20
2020,05,04,15,04,13.30
2020,05,04,15,05,13.30
2020,05,04,15,06,13.40
2020,05,04,15,07,13.50
2020,05,04,15,08,13.60
2020,05,04,15,09,13.70
2020,05,04,15,10,13.70
2020,05,04,15,11,13.80
2020,05,04,15,12,13.90
2020,05,04,15,13,14.00
2020,05,04,15,14,14.00
2020,05,04,15,15,14.10
2020,05,04,15,16,14.10
2020,05,04,15,17,14.10
2020,05,04,15,18,14.20
2020,05,04,15,19,14.20
2020,05,04,15,20,14.30
2020,05,04,15,21,14.40
2020,05,04,15,22,14.40
2020,05,04,15,23,14.40
2020,05,04,15,24,14.40
2020,05,04,15,25,14.40
2020,05,04,15,26,14.40
2020,05,04,15,27,14.30
2020,05,04,15,28,14.20
2020,05,04,15,29,14.20
2020,05,04,15,30,14.20
2020,05,04,15,31,14.30
2020,05,04,15,32,14.30
2020,05,04,15,33,14.20
2020,05,04,15,34,14.20
2020,05,04,15,35,14.20
2020,05,04,15,36,14.20
2020,05,04,15,37,14.20
2020,05,04,15,38,14.30
2020,05,04,15,39,14.40
2020,05,04,15,40,14.40
2020,05,04,15,41,14.40
2020,05,04,15,42,14.40
2020,05,04,15,43,14.30
2020,05,04,15,44,14.30
2020,05,04,15,45,14.30
2020,05,04,15,46,14.30
2020,05,04,15,47,14.40
2020,05,04,15,48,14.40
2020,05,04,15,49,14.50
2020,05,04,15,50,14.50
2020,05,04,15,51,14.60
2020,05,04,15,52,14.60
2020,05,04,15,53,14.70
2020,05,04,15,54,14.70
2020,05,04,15,55,14.60
2020,05,04,15,56,14.60
2020,05,04,15,57,14.50
2020,05,04,15,58,14.50
2020,05,04,15,59,14.50
2020,05,04,16,00,14.50
2020,05,04,16,01,14.50
2020,05,04,16,02,14.40
2020,05,04,16,03,14.40
2020,05,04,16,04,14.40
2020,05,04,16,05,14.40
2020,05,04,16,06,14.40
2020,05,04,16,07,14.40
2020,05,04,16,08,14.40
2020,05,04,16,09,14.40
2020,05,04,16,10,14.40
2020,05,04,16,11,14.40
2020,05,04,16,12,14.30
2020,05,04,16,13,14.40
2020,05,04,16,14,14.40
2020,05,04,16,15,14.40
2020,05,04,16,16,14.50
2020,05,04,16,17,14.50
2020,05,04,16,18,14.60
2020,05,04,16,19,14.60
2020,05,04,16,20,14.60
2020,05,04,16,21,14.60
2020,05,04,16,22,14.60
2020,05,04,16,23,14.60
2020,05,04,16,24,14.60
2020,05,04,16,25,14.60
2020,05,04,16,26,14.60
2020,05,04,16,27,14.70
2020,05,04,16,28,14.70
2020,05,04,16,29,14.70
2020,05,04,16,30,14.70
2020,05,04,16,31,14.70
2020,05,04,16,32,14.80
2020,05,04,16,33,14.80
2020,05,04,16,34,14.80
2020,05,04,16,35,14.80
2020,05,04,16,36,14.90
2020,05,04,16,37,14.90
2020,05,04,16,38,14.90
2020,05,04,16,39,14.90
2020,05,04,16,40,14.90
2020,05,04,16,41,14.90
2020,05,04,16,42,14.80
2020,05,04,16,43,14.80
2020,05,04,16,44,14.80
2020,05,04,16,45,14.80
2020,05,04,16,46,14.80
2020,05,04,16,47,14.80
2020,05,04,16,48,14.80
2020,05,04,16,49,14.80
2020,05,04,16,50,14.70
2020,05,04,16,51,14.70
2020,05,04,16,52,14.70
2020,05,04,16,53,14.70
2020,05,04,16,54,14.70
2020,05,04,16,55,14.70
2020,05,04,16,56,14.70
2020,05,04,16,57,14.80
2020,05,04,16,58,14.80
2020,05,04,16,59,14.80
2020,05,04,17,00,14.80
2020,05,04,17,01,14.80
2020,05,04,17,02,14.80
2020,05,04,17,03,14.90
2020,05,04,17,04,15.00
2020,05,04,17,05,15.00
2020,05,04,17,06,15.00
2020,05,04,17,07,15.00
2020,05,04,17,08,15.10
2020,05,04,17,09,15.10
2020,05,04,17,10,15.20
2020,05,04,17,11,15.30
2020,05,04,17,12,15.30
2020,05,04,17,13,15.30
2020,05,04,17,14,15.30
2020,05,04,17,15,15.30
2020,05,04,17,16,15.30
2020,05,04,17,17,15.30
2020,05,04,17,18,15.40
2020,05,04,17,19,15.40
2020,05,04,17,20,15.30
2020,05,04,17,21,15.30
2020,05,04,17,22,15.30
2020,05,04,17,23,15.30
2020,05,04,17,24,15.30
2020,05,04,17,25,15.30
2020,05,04,17,26,15.40
2020,05,04,17,27,15.40
2020,05,04,17,28,15.50
2020,05,04,17,29,15.50
2020,05,04,17,30,15.50
2020,05,04,17,31,15.60
2020,05,04,17,32,15.60
2020,05,04,17,33,15.60
2020,05,04,17,34,15.70
2020,05,04,17,35,15.80
2020,05,04,17,36,15.80
2020,05,04,17,37,15.80
2020,05,04,17,38,15.90
2020,05,04,17,39,15.90
2020,05,04,17,40,16.10
2020,05,04,17,41,16.10
2020,05,04,17,42,16.10
2020,05,04,17,43,16.10
2020,05,04,17,44,16.10
2020,05,04,17,45,16.20
2020,05,04,17,46,16.20
2020,05,04,17,47,16.20
2020,05,04,17,48,16.20
2020,05,04,17,49,16.10
2020,05,04,17,50,16.10
2020,05,04,17,51,16.10
2020,05,04,17,52,16.10
2020,05,04,17,53,16.10
2020,05,04,17,54,16.10
2020,05,04,17,55,16.10
2020,05,04,17,56,16.00
2020,05,04,17,57,15.90
2020,05,04,17,58,15.80
2020,05,04,17,59,15.80
2020,05,04,18,00,15.80
2020,05,04,18,01,15.80
2020,05,04,18,02,15.70
2020,05,04,18,03,15.60
2020,05,04,18,04,15.50
2020,05,04,18,05,15.40
2020,05,04,18,06,15.30
2020,05,04,18,07,15.30
2020,05,04,18,08,15.30
2020,05,04,18,09,15.20
2020,05,04,18,10,15.10
2020,05,04,18,11,15.00
2020,05,04,18,12,14.80
2020,05,04,18,13,14.70
2020,05,04,18,14,14.60
2020,05,04,18,15,14.60
2020,05,04,18,16,14.50
2020,05,04,18,17,14.50
2020,05,04,18,18,14.40
2020,05,04,18,19,14.30
2020,05,04,18,20,14.20
2020,05,04,18,21,14.20
2020,05,04,18,22,14.10
2020,05,04,18,23,14.00
2020,05,04,18,24,13.90
2020,05,04,18,25,13.80
2020,05,04,18,26,13.70
2020,05,04,18,27,13.70
2020,05,04,18,28,13.60
2020,05,04,18,29,13.60
2020,05,04,18,30,13.50
2020,05,04,18,31,13.50
2020,05,04,18,32,13.40
2020,05,04,18,33,13.30
2020,05,04,18,34,13.20
2020,05,04,18,35,13.10
2020,05,04,18,36,13.10
2020,05,04,18,37,13.00
2020,05,04,18,38,13.00
2020,05,04,18,39,12.90
2020,05,04,18,40,12.90
2020,05,04,18,41,12.80
2020,05,04,18,42,12.80
2020,05,04,18,43,12.80
2020,05,04,18,44,12.80
2020,05,04,18,45,12.70
2020,05,04,18,46,12.70
2020,05,04,18,47,12.60
2020,05,04,18,48,12.60
2020,05,04,18,49,12.60
2020,05,04,18,50,12.60
2020,05,04,18,51,12.60
2020,05,04,18,52,12.60
2020,05,04,18,53,12.50
2020,05,04,18,54,12.50
2020,05,04,18,55,12.50
2020,05,04,18,56,12.50
2020,05,04,18,57,12.40
2020,05,04,18,58,12.50
2020,05,04,18,59,12.50
2020,05,04,19,00,12.50
2020,05,04,19,01,12.50
2020,05,04,19,02,12.50
2020,05,04,19,03,12.50
2020,05,04,19,04,12.50
2020,05,04,19,05,12.50
2020,05,04,19,06,12.40
2020,05,04,19,07,12.40
2020,05,04,19,08,12.40
2020,05,04,19,09,12.40
2020,05,04,19,10,12.30
2020,05,04,19,11,12.30
2020,05,04,19,12,12.30
2020,05,04,19,13,12.30
2020,05,04,19,14,12.30
2020,05,04,19,15,12.30
2020,05,04,19,16,12.30
2020,05,04,19,17,12.20
2020,05,04,19,18,12.20
2020,05,04,19,19,12.20
2020,05,04,19,20,12.20
2020,05,04,19,21,12.20
2020,05,04,19,22,12.10
2020,05,04,19,23,12.10
2020,05,04,19,24,12.10
2020,05,04,19,25,12.10
2020,05,04,19,26,12.10
2020,05,04,19,27,12.10
2020,05,04,19,28,12.10
2020,05,04,19,29,12.10
2020,05,04,19,30,12.10
2020,05,04,19,31,12.10
2020,05,04,19,32,12.10
2020,05,04,19,33,12.10
2020,05,04,19,34,12.10
2020,05,04,19,35,12.10
2020,05,04,19,36,12.10
2020,05,04,19,37,12.00
2020,05,04,19,38,12.00
2020,05,04,19,39,12.00
2020,05,04,19,40,12.00
2020,05,04,19,41,12.00
2020,05,04,19,42,12.00
2020,05,04,19,43,12.00
2020,05,04,19,44,12.00
2020,05,04,19,45,12.00
2020,05,04,19,46,12.10
2020,05,04,19,47,12.10
2020,05,04,19,48,12.10
2020,05,04,19,49,12.10
2020,05,04,19,50,12.10
2020,05,04,19,51,12.10
2020,05,04,19,52,12.10
2020,05,04,19,53,12.10
2020,05,04,19,54,12.10
2020,05,04,19,55,12.10
2020,05,04,19,56,12.10
